Minneapolis Crystal, MN

8:50 AM CDT on June 26, 2017 (GMT -0500)
Crystal

Weather History for KMIC - May, 2014

Change the Weather History Date:

Saturday, May 10, 2014

  Actual Average Record
Temperature  
Mean Temperature 54 °F -  
Max Temperature 71 °F 65 °F 87 °F (2011)
Min Temperature 39 °F 43 °F 33 °F (2002)
Degree Days  
Heating Degree Days 10    
Growing Degree Days 4 (Base 50)    
Moisture  
Dew Point 42 °F    
Average Humidity 62    
Maximum Humidity 93    
Minimum Humidity 30    
Precipitation  
Precipitation 0.07 in - - ()
Sea Level Pressure  
Sea Level Pressure 29.83 in    
Wind  
Wind Speed 5 mph (SSE)    
Max Wind Speed 17 mph    
Max Gust Speed 23 mph    
Visibility 10 miles    
Events Rain , Thunderstorm    
Averages and records for this station are not official NWS values.
T = Trace of Precipitation, MM = Missing Value Source: NWS Daily Summary

Daily Weather History Graph

Daily Weather History Graph

Search for Another Location

Airport or City:

Trip Planner

Search our weather history database for the weather conditions in past years. The results will help you decide how hot, cold, wet, or windy it might be!

Date:

Astronomy

May. 10, 2014 Rise Set
Actual Time 5:50 AM CDT 8:30 PM CDT
Civil Twilight 5:16 AM CDT 9:03 PM CDT
Nautical Twilight 4:34 AM CDT 9:46 PM CDT
Astronomical Twilight 3:45 AM CDT 10:35 PM CDT
Moon 4:15 PM CDT (5/10) 3:35 AM CDT (5/10)
Length of Visible Light 15h 47m
Length of Day
14h 40m
Waxing Gibbous, 82% of the Moon is Illuminated
May 10
Waxing Gibbous
May 14
Full
May 21
Last Quarter
May 28
New
Jun 5
First Quarter

Hourly Weather History & Observations

Time (CDT) Temp. Windchill Dew Point Humidity Pressure Visibility Wind Dir Wind Speed Gust Speed Precip Events Conditions
12:53 AM 42.1 °F - 36.0 °F 79% 29.81 in 10.0 mi Calm Calm - N/A   Clear
1:53 AM 41.0 °F 39.0 °F 36.0 °F 82% 29.82 in 10.0 mi SW 3.5 mph - N/A   Clear
2:53 AM 42.1 °F 39.2 °F 37.0 °F 82% 29.83 in 10.0 mi SW 4.6 mph - N/A   Clear
3:53 AM 42.1 °F - 36.0 °F 79% 29.85 in 10.0 mi Calm Calm - N/A   Clear
4:53 AM 41.0 °F - 36.0 °F 82% 29.86 in 10.0 mi Calm Calm - N/A   Clear
6:53 AM 39.0 °F - 37.0 °F 93% 29.88 in 6.0 mi Calm Calm - N/A   Clear
7:53 AM 48.9 °F - 42.1 °F 77% 29.88 in 10.0 mi Calm Calm - N/A   Clear
8:53 AM 54.0 °F - 41.0 °F 62% 29.88 in 10.0 mi East 3.5 mph - N/A   Clear
9:53 AM 60.1 °F - 33.1 °F 36% 29.87 in 10.0 mi SE 6.9 mph - N/A   Clear
10:53 AM 62.1 °F - 32.0 °F 32% 29.86 in 10.0 mi ESE 9.2 mph - N/A   Partly Cloudy
11:53 AM 64.0 °F - 34.0 °F 33% 29.85 in 10.0 mi SE 10.4 mph - N/A   Clear
12:53 PM 66.0 °F - 34.0 °F 30% 29.84 in 10.0 mi SE 11.5 mph 19.6 mph N/A   Clear
1:53 PM 70.0 °F - 39.9 °F 33% 29.83 in 10.0 mi SSE 17.3 mph 23.0 mph N/A   Mostly Cloudy
2:53 PM 68.0 °F - 43.0 °F 40% 29.80 in 10.0 mi SE 13.8 mph 21.9 mph N/A   Mostly Cloudy
3:53 PM 69.1 °F - 45.0 °F 42% 29.79 in 10.0 mi SE 12.7 mph - 0.00 in   Overcast
4:53 PM 70.0 °F - 44.1 °F 39% 29.78 in 10.0 mi North - - N/A   Mostly Cloudy
5:53 PM 64.0 °F - 51.1 °F 63% 29.80 in 10.0 mi SSW 10.4 mph - 0.01 in Rain Light Rain
6:53 PM 64.0 °F - 48.9 °F 58% 29.77 in 10.0 mi ESE 8.1 mph - 0.00 in   Partly Cloudy
7:53 PM 63.0 °F - 48.9 °F 60% 29.77 in 10.0 mi East 6.9 mph - N/A   Overcast
8:15 PM 62.1 °F - 48.9 °F 62% 29.79 in 10.0 mi South 12.7 mph - 0.00 in Rain , Thunderstorm Light Rain
8:22 PM 61.0 °F - 51.1 °F 70% 29.79 in 7.0 mi SSE 9.2 mph - 0.03 in Rain , Thunderstorm Thunderstorms and Rain
8:42 PM 60.1 °F - 51.1 °F 72% 29.82 in 10.0 mi South 9.2 mph - 0.04 in   Overcast
8:53 PM 59.0 °F - 52.0 °F 78% 29.83 in 10.0 mi South 8.1 mph - 0.04 in Rain Light Rain
10:53 PM 57.9 °F - 52.0 °F 81% 29.86 in 5.0 mi Calm Calm - 0.01 in Rain Rain
11:53 PM 55.0 °F - 52.0 °F 89% 29.84 in 9.0 mi East 5.8 mph - 0.01 in   Clear